DLH07M EDDF-ENGM

Flight info

Callsign DLH07M
Flight time 1h 42m
Altitude 37000
Route MARUN3W/25C MARUN Y150 TOLGI DCT ALASA DCT INVOL DCT SABAK/N0449F380 L997 LUNIP
Aircraft A319/M-SDE3FGHIRWY/LB1

Departure

Time 2026-05-07 14:27
Airport Frankfurt Main Airport (EDDF)

Arrival

Time 2026-05-07 16:09
Airport Oslo-Gardermoen International Airport (ENGM)
Time Latitude Longitude Altitude Speed Heading
2026-05-07 13:29 50.04431 8.56329 356 ft 0 kts 167°
2026-05-07 14:16 50.04438 8.56326 356 ft 4 kts 167°
2026-05-07 14:16 50.04462 8.56318 363 ft 2 kts 166°
2026-05-07 14:17 50.04485 8.56313 359 ft 4 kts 195°
2026-05-07 14:17 50.04504 8.56334 365 ft 4 kts 244°
2026-05-07 14:17 50.04513 8.56369 363 ft 1 kts 249°
2026-05-07 14:17 50.04513 8.56370 363 ft 0 kts 249°
2026-05-07 14:19 50.04510 8.56354 361 ft 4 kts 249°
2026-05-07 14:19 50.04494 8.56288 360 ft 9 kts 250°
2026-05-07 14:20 50.04468 8.56181 362 ft 11 kts 249°
2026-05-07 14:20 50.04451 8.56109 361 ft 10 kts 250°
2026-05-07 14:20 50.04391 8.56029 356 ft 10 kts 172°
2026-05-07 14:20 50.04313 8.56075 355 ft 13 kts 149°
2026-05-07 14:21 50.04287 8.56195 355 ft 11 kts 110°
2026-05-07 14:21 50.04218 8.56252 355 ft 11 kts 161°
2026-05-07 14:21 50.04151 8.56300 356 ft 10 kts 133°
2026-05-07 14:21 50.04161 8.56422 357 ft 13 kts 70°
2026-05-07 14:22 50.04197 8.56573 359 ft 16 kts 69°
2026-05-07 14:22 50.04222 8.56679 357 ft 15 kts 70°
2026-05-07 14:22 50.04252 8.56804 359 ft 10 kts 70°
2026-05-07 14:22 50.04276 8.56906 361 ft 11 kts 69°
2026-05-07 14:23 50.04305 8.57026 361 ft 11 kts 70°
2026-05-07 14:23 50.04327 8.57116 361 ft 7 kts 70°
2026-05-07 14:23 50.04350 8.57212 363 ft 14 kts 70°
2026-05-07 14:23 50.04387 8.57369 367 ft 16 kts 69°
2026-05-07 14:24 50.04427 8.57540 362 ft 17 kts 76°
2026-05-07 14:24 50.04376 8.57663 367 ft 12 kts 161°
2026-05-07 14:24 50.04311 8.57697 362 ft 3 kts 161°
2026-05-07 14:24 50.04290 8.57705 364 ft 4 kts 174°
2026-05-07 14:25 50.04267 8.57672 363 ft 0 kts 252°
2026-05-07 14:26 50.04266 8.57666 362 ft 3 kts 252°
2026-05-07 14:26 50.04189 8.57338 370 ft 70 kts 249°
2026-05-07 14:27 50.03934 8.56274 355 ft 137 kts 250°
2026-05-07 14:27 50.03556 8.54720 696 ft 156 kts 249°
2026-05-07 14:27 50.03163 8.53132 1404 ft 159 kts 251°
2026-05-07 14:27 50.02750 8.51439 1858 ft 178 kts 251°
2026-05-07 14:28 50.02110 8.49686 2343 ft 195 kts 230°
2026-05-07 14:28 50.00998 8.48383 2895 ft 208 kts 207°
2026-05-07 14:28 49.99573 8.47849 3544 ft 214 kts 189°
2026-05-07 14:28 49.98099 8.47531 4281 ft 214 kts 189°
2026-05-07 14:29 49.96619 8.47208 5001 ft 216 kts 190°
2026-05-07 14:29 49.95137 8.46652 5510 ft 228 kts 198°
2026-05-07 14:29 49.93556 8.45928 5979 ft 247 kts 198°
2026-05-07 14:29 49.91981 8.44826 6782 ft 251 kts 220°
2026-05-07 14:30 49.90914 8.42723 7625 ft 251 kts 249°
2026-05-07 14:30 49.90632 8.40080 8503 ft 251 kts 277°
2026-05-07 14:30 49.91197 8.37535 9377 ft 254 kts 304°
2026-05-07 14:30 49.92504 8.35705 10220 ft 258 kts 332°
2026-05-07 14:31 49.94197 8.34552 10722 ft 277 kts 336°
2026-05-07 14:31 49.96055 8.33358 11019 ft 301 kts 337°
2026-05-07 14:31 49.98068 8.32070 11283 ft 325 kts 337°
2026-05-07 14:31 50.00211 8.30692 11753 ft 338 kts 336°
2026-05-07 14:32 50.02464 8.29526 12458 ft 346 kts 349°
2026-05-07 14:32 50.04878 8.29529 13190 ft 353 kts
2026-05-07 14:32 50.07267 8.30515 13940 ft 357 kts 14°
2026-05-07 14:32 50.09662 8.31594 14610 ft 361 kts 15°
2026-05-07 14:33 50.12087 8.32704 15278 ft 365 kts 15°
2026-05-07 14:33 50.14531 8.33832 15950 ft 369 kts 15°
2026-05-07 14:33 50.17003 8.34973 16609 ft 372 kts 15°
2026-05-07 14:33 50.19502 8.36122 17265 ft 376 kts 15°
2026-05-07 14:34 50.22026 8.37280 17927 ft 380 kts 15°
2026-05-07 14:34 50.24580 8.38444 18539 ft 384 kts 14°
2026-05-07 14:34 50.27160 8.39615 19103 ft 388 kts 14°
2026-05-07 14:34 50.29763 8.40809 19679 ft 391 kts 16°
2026-05-07 14:35 50.32363 8.42114 20263 ft 394 kts 17°
2026-05-07 14:35 50.34964 8.43524 20840 ft 397 kts 18°
2026-05-07 14:35 50.37577 8.44992 21412 ft 400 kts 19°
2026-05-07 14:35 50.40175 8.46461 21945 ft 404 kts 18°
2026-05-07 14:36 50.42859 8.47974 22478 ft 407 kts 18°
2026-05-07 14:36 50.45540 8.49471 22984 ft 410 kts 18°
2026-05-07 14:36 50.48245 8.50953 23497 ft 413 kts 17°
2026-05-07 14:36 50.50952 8.52333 23926 ft 416 kts 16°
2026-05-07 14:37 50.53729 8.53661 24349 ft 418 kts 15°
2026-05-07 14:37 50.59348 8.56250 25172 ft 424 kts 15°
2026-05-07 14:37 50.62185 8.57569 25585 ft 426 kts 15°
2026-05-07 14:38 50.65033 8.58915 25998 ft 429 kts 16°
2026-05-07 14:38 50.67892 8.60282 26410 ft 431 kts 16°
2026-05-07 14:38 50.70769 8.61668 26823 ft 433 kts 16°
2026-05-07 14:38 50.73659 8.63070 27227 ft 436 kts 16°
2026-05-07 14:39 50.76561 8.64495 27621 ft 438 kts 17°
2026-05-07 14:39 50.79382 8.66355 28001 ft 441 kts 26°
2026-05-07 14:39 50.81995 8.68920 28378 ft 445 kts 36°
2026-05-07 14:39 50.84337 8.72140 28752 ft 448 kts 45°
2026-05-07 14:40 50.86335 8.75938 29122 ft 450 kts 52°
2026-05-07 14:40 50.88224 8.79907 29482 ft 453 kts 52°
2026-05-07 14:40 50.90130 8.83901 29828 ft 455 kts 52°
2026-05-07 14:40 50.92047 8.87906 30161 ft 457 kts 52°
2026-05-07 14:41 50.93974 8.91930 30431 ft 459 kts 52°
2026-05-07 14:41 50.95906 8.95960 30807 ft 459 kts 52°
2026-05-07 14:41 50.97831 8.99987 31215 ft 458 kts 52°
2026-05-07 14:41 50.99748 9.04019 31618 ft 457 kts 52°
2026-05-07 14:42 51.01658 9.08052 32006 ft 457 kts 52°
2026-05-07 14:42 51.03565 9.12086 32398 ft 457 kts 52°
2026-05-07 14:42 51.05471 9.16121 32794 ft 456 kts 52°
2026-05-07 14:42 51.07393 9.20127 33169 ft 455 kts 49°
2026-05-07 14:43 51.09599 9.23720 33547 ft 453 kts 39°
2026-05-07 14:43 51.12130 9.26686 33927 ft 451 kts 30°
2026-05-07 14:43 51.14917 9.28954 34255 ft 449 kts 21°
2026-05-07 14:43 51.17880 9.30482 34531 ft 449 kts 12°
2026-05-07 14:44 51.20897 9.31523 34778 ft 449 kts 10°
2026-05-07 14:44 51.23957 9.32573 35032 ft 451 kts 11°
2026-05-07 14:44 51.27024 9.33637 35295 ft 452 kts 11°
2026-05-07 14:44 51.30106 9.34713 35542 ft 453 kts 11°
2026-05-07 14:45 51.33188 9.35791 35774 ft 454 kts 11°
2026-05-07 14:45 51.36282 9.36873 35993 ft 456 kts 11°
2026-05-07 14:45 51.42491 9.39042 36059 ft 457 kts 11°
2026-05-07 14:46 51.48698 9.41208 36054 ft 456 kts 11°
2026-05-07 14:46 51.54908 9.43383 36060 ft 457 kts 12°
2026-05-07 14:47 51.61113 9.45572 36062 ft 456 kts 12°
2026-05-07 14:47 51.67324 9.47761 36072 ft 457 kts 11°
2026-05-07 14:48 51.73531 9.49962 36071 ft 456 kts 11°
2026-05-07 14:48 51.79734 9.52156 36071 ft 456 kts 11°
2026-05-07 14:49 51.86002 9.53716 36070 ft 455 kts
2026-05-07 14:49 51.92284 9.54552 36080 ft 456 kts
2026-05-07 14:50 51.98603 9.55405 36076 ft 456 kts
2026-05-07 14:50 52.04923 9.56264 36080 ft 456 kts
2026-05-07 14:51 52.11243 9.57128 36083 ft 456 kts
2026-05-07 14:51 52.17571 9.57989 36089 ft 455 kts
2026-05-07 14:52 52.23882 9.58849 36096 ft 455 kts
2026-05-07 14:52 52.30194 9.59716 36101 ft 455 kts
2026-05-07 14:53 52.36509 9.60575 36110 ft 455 kts
2026-05-07 14:53 52.42819 9.61435 36109 ft 455 kts
2026-05-07 14:54 52.49132 9.62306 36112 ft 455 kts
2026-05-07 14:54 52.55438 9.63189 36111 ft 455 kts
2026-05-07 14:55 52.61749 9.64069 36104 ft 455 kts
2026-05-07 14:55 52.68056 9.64951 36097 ft 454 kts
2026-05-07 14:56 52.74357 9.65831 36085 ft 454 kts
2026-05-07 14:56 52.80656 9.66703 36082 ft 454 kts
2026-05-07 14:57 52.86920 9.67587 36076 ft 454 kts
2026-05-07 14:57 52.93224 9.68469 36077 ft 455 kts
2026-05-07 14:58 52.99532 9.69350 36081 ft 455 kts
2026-05-07 14:58 53.05836 9.70250 36080 ft 455 kts
2026-05-07 14:59 53.12143 9.71158 36081 ft 455 kts
2026-05-07 14:59 53.18451 9.72058 36079 ft 455 kts
2026-05-07 15:00 53.24761 9.72955 36083 ft 455 kts
2026-05-07 15:00 53.31064 9.73853 36080 ft 455 kts
2026-05-07 15:01 53.37368 9.74753 36079 ft 455 kts
2026-05-07 15:01 53.43681 9.75676 36078 ft 455 kts
2026-05-07 15:02 53.49996 9.76600 36083 ft 455 kts
2026-05-07 15:02 53.56317 9.77509 36085 ft 455 kts
2026-05-07 15:03 53.62625 9.78431 36085 ft 456 kts
2026-05-07 15:03 53.68907 9.79357 36085 ft 456 kts
2026-05-07 15:04 53.75224 9.80273 36082 ft 456 kts
2026-05-07 15:04 53.81546 9.81194 36086 ft 455 kts
2026-05-07 15:05 53.87858 9.82117 36087 ft 455 kts
2026-05-07 15:05 53.94164 9.83051 36089 ft 455 kts
2026-05-07 15:06 54.00467 9.83988 36095 ft 454 kts
2026-05-07 15:06 54.05744 9.84774 36099 ft 454 kts
2026-05-07 15:07 54.12005 9.85698 36099 ft 454 kts
2026-05-07 15:07 54.18278 9.86632 36093 ft 452 kts
2026-05-07 15:08 54.24551 9.87585 36123 ft 452 kts
2026-05-07 15:08 54.30822 9.88544 36131 ft 452 kts
2026-05-07 15:09 54.37087 9.89483 36134 ft 451 kts
2026-05-07 15:09 54.43333 9.90421 36133 ft 450 kts
2026-05-07 15:10 54.49572 9.91366 36131 ft 450 kts
2026-05-07 15:10 54.55812 9.92316 36128 ft 450 kts
2026-05-07 15:11 54.62048 9.93272 36122 ft 449 kts
2026-05-07 15:11 54.68263 9.94226 36119 ft 448 kts
2026-05-07 15:12 54.74432 9.95182 36117 ft 448 kts
2026-05-07 15:12 54.80632 9.96188 36118 ft 448 kts
2026-05-07 15:13 54.86704 9.98559 36134 ft 447 kts 13°
2026-05-07 15:13 54.92753 10.01054 36133 ft 447 kts 13°
2026-05-07 15:14 54.98798 10.03552 36135 ft 446 kts 13°
2026-05-07 15:14 55.04842 10.06059 36134 ft 446 kts 13°
2026-05-07 15:15 55.10889 10.08565 36133 ft 446 kts 13°
2026-05-07 15:15 55.16926 10.11081 36126 ft 446 kts 13°
2026-05-07 15:16 55.22960 10.13615 36121 ft 446 kts 13°
2026-05-07 15:16 55.28991 10.16151 36120 ft 446 kts 13°
2026-05-07 15:17 55.35026 10.18679 36117 ft 446 kts 13°
2026-05-07 15:17 55.41055 10.21212 36117 ft 446 kts 13°
2026-05-07 15:18 55.47090 10.23769 36117 ft 446 kts 13°
2026-05-07 15:18 55.53130 10.26345 36117 ft 446 kts 13°
2026-05-07 15:19 55.59162 10.28929 36117 ft 446 kts 13°
2026-05-07 15:19 55.65160 10.31495 36117 ft 446 kts 13°
2026-05-07 15:20 55.71238 10.34096 36117 ft 446 kts 13°
2026-05-07 15:20 55.77265 10.36702 36114 ft 446 kts 13°
2026-05-07 15:21 55.83305 10.39314 36117 ft 446 kts 13°
2026-05-07 15:21 55.89300 10.41911 36118 ft 446 kts 13°
2026-05-07 15:22 55.95338 10.44531 36119 ft 446 kts 13°
2026-05-07 15:22 56.01373 10.47164 36120 ft 447 kts 13°
2026-05-07 15:23 56.07411 10.49808 36120 ft 447 kts 13°
2026-05-07 15:23 56.13445 10.52457 36125 ft 446 kts 12°
2026-05-07 15:24 56.19479 10.55095 36120 ft 446 kts 12°
2026-05-07 15:24 56.25505 10.57762 36138 ft 446 kts 12°
2026-05-07 15:25 56.31530 10.60443 36139 ft 446 kts 13°
2026-05-07 15:25 56.37551 10.63116 36139 ft 446 kts 12°
2026-05-07 15:26 56.43576 10.65790 36135 ft 446 kts 12°
2026-05-07 15:26 56.49602 10.68484 36133 ft 446 kts 12°
2026-05-07 15:27 56.55620 10.71205 36130 ft 446 kts 12°
2026-05-07 15:27 56.61642 10.73938 36127 ft 446 kts 12°
2026-05-07 15:28 56.67628 10.76641 36124 ft 446 kts 12°
2026-05-07 15:28 56.73696 10.79371 36128 ft 447 kts 12°
2026-05-07 15:29 56.79727 10.82107 36127 ft 447 kts 12°
2026-05-07 15:29 56.85721 10.84847 36128 ft 447 kts 12°
2026-05-07 15:30 56.91746 10.87603 36143 ft 447 kts 12°
2026-05-07 15:30 56.97784 10.90391 36129 ft 448 kts 12°
2026-05-07 15:31 57.03825 10.93184 36140 ft 448 kts 12°
2026-05-07 15:31 57.09870 10.95982 36133 ft 448 kts 11°
2026-05-07 15:32 57.15913 10.98773 36129 ft 448 kts 11°
2026-05-07 15:32 57.21960 11.01583 36137 ft 448 kts 11°
2026-05-07 15:33 57.28015 11.04417 36129 ft 449 kts 11°
2026-05-07 15:33 57.34064 11.07255 36132 ft 449 kts 11°
2026-05-07 15:34 57.40111 11.10104 36132 ft 449 kts 11°
2026-05-07 15:34 57.46170 11.12966 36132 ft 449 kts 11°
2026-05-07 15:35 57.52232 11.15834 36131 ft 450 kts 11°
2026-05-07 15:35 57.58299 11.18713 36133 ft 450 kts 11°
2026-05-07 15:36 57.64364 11.21625 36133 ft 450 kts 12°
2026-05-07 15:36 57.70188 11.25899 36153 ft 454 kts 20°
2026-05-07 15:37 57.76015 11.30559 36128 ft 455 kts 19°
2026-05-07 15:37 57.81843 11.35218 36126 ft 455 kts 19°
2026-05-07 15:38 57.87670 11.39888 36123 ft 456 kts 19°
2026-05-07 15:38 57.93464 11.44556 36125 ft 456 kts 19°
2026-05-07 15:39 57.99290 11.49282 36119 ft 456 kts 19°
2026-05-07 15:39 58.05125 11.54025 36128 ft 457 kts 19°
2026-05-07 15:40 58.10965 11.58777 36126 ft 457 kts 19°
2026-05-07 15:40 58.16948 11.62510 36124 ft 449 kts
2026-05-07 15:41 58.23099 11.62611 36126 ft 439 kts 347°
2026-05-07 15:41 58.29119 11.60764 36117 ft 438 kts 347°
2026-05-07 15:42 58.35139 11.58908 36120 ft 438 kts 347°
2026-05-07 15:42 58.41162 11.57039 36122 ft 438 kts 347°
2026-05-07 15:43 58.47183 11.55173 36122 ft 438 kts 347°
2026-05-07 15:43 58.53205 11.53304 36128 ft 438 kts 346°
2026-05-07 15:44 58.59215 11.51414 36122 ft 437 kts 346°
2026-05-07 15:44 58.65212 11.49514 36122 ft 437 kts 346°
2026-05-07 15:45 58.71214 11.47632 36122 ft 437 kts 346°
2026-05-07 15:45 58.77218 11.45745 36042 ft 438 kts 346°
2026-05-07 15:46 58.83218 11.43847 35115 ft 438 kts 346°
2026-05-07 15:46 58.86234 11.42879 34283 ft 440 kts 345°
2026-05-07 15:46 58.89244 11.41914 33589 ft 436 kts 345°
2026-05-07 15:47 58.92248 11.40949 32591 ft 439 kts 345°
2026-05-07 15:47 58.95272 11.39981 31537 ft 443 kts 345°
2026-05-07 15:47 58.98326 11.39003 30471 ft 447 kts 345°
2026-05-07 15:47 59.01406 11.38012 29365 ft 449 kts 345°
2026-05-07 15:48 59.04443 11.37032 28458 ft 446 kts 345°
2026-05-07 15:48 59.07471 11.36059 28011 ft 434 kts 345°
2026-05-07 15:48 59.10426 11.35109 27778 ft 435 kts 345°
2026-05-07 15:48 59.13426 11.33999 27530 ft 440 kts 343°
2026-05-07 15:49 59.16422 11.32870 27277 ft 440 kts 347°
2026-05-07 15:49 59.19503 11.32770 27011 ft 448 kts
2026-05-07 15:49 59.22575 11.34078 26623 ft 454 kts 11°
2026-05-07 15:49 59.25585 11.35868 25990 ft 451 kts 12°
2026-05-07 15:50 59.28580 11.37763 25384 ft 452 kts 13°
2026-05-07 15:50 59.31561 11.39704 24768 ft 450 kts 13°
2026-05-07 15:50 59.34522 11.41649 24164 ft 447 kts 13°
2026-05-07 15:50 59.37464 11.43573 23545 ft 444 kts 13°
2026-05-07 15:51 59.40383 11.45460 22905 ft 439 kts 13°
2026-05-07 15:51 59.43281 11.47304 22311 ft 435 kts 12°
2026-05-07 15:51 59.46150 11.49109 21727 ft 431 kts 12°
2026-05-07 15:51 59.48995 11.50893 21150 ft 427 kts 12°
2026-05-07 15:52 59.51816 11.52659 20579 ft 424 kts 12°
2026-05-07 15:52 59.54612 11.54412 20009 ft 420 kts 13°
2026-05-07 15:52 59.57386 11.56160 19448 ft 417 kts 13°
2026-05-07 15:52 59.59208 11.57315 19077 ft 414 kts 13°
2026-05-07 15:53 59.61947 11.59060 18515 ft 411 kts 13°
2026-05-07 15:53 59.64661 11.60792 17919 ft 408 kts 13°
2026-05-07 15:53 59.67348 11.62513 17383 ft 405 kts 13°
2026-05-07 15:53 59.70021 11.64227 16826 ft 402 kts 14°
2026-05-07 15:54 59.72664 11.65925 16288 ft 398 kts 14°
2026-05-07 15:54 59.75289 11.67613 15757 ft 395 kts 14°
2026-05-07 15:54 59.77893 11.69285 15227 ft 391 kts 14°
2026-05-07 15:54 59.80476 11.70944 14704 ft 388 kts 14°
2026-05-07 15:55 59.83034 11.72591 14186 ft 385 kts 15°
2026-05-07 15:55 59.85574 11.74226 13640 ft 382 kts 15°
2026-05-07 15:55 59.88092 11.75850 13112 ft 379 kts 15°
2026-05-07 15:55 59.90556 11.77442 12613 ft 376 kts 15°
2026-05-07 15:56 59.93031 11.79047 12107 ft 373 kts 15°
2026-05-07 15:56 59.95486 11.80646 11690 ft 370 kts 15°
2026-05-07 15:56 59.97923 11.82239 11286 ft 367 kts 16°
2026-05-07 15:56 60.00338 11.83822 10885 ft 364 kts 16°
2026-05-07 15:57 60.02735 11.85392 10488 ft 359 kts 16°
2026-05-07 15:57 60.05035 11.86904 10208 ft 336 kts 16°
2026-05-07 15:57 60.07185 11.88326 9958 ft 314 kts 16°
2026-05-07 15:57 60.09202 11.89660 9672 ft 296 kts 16°
2026-05-07 15:58 60.11140 11.90873 9273 ft 290 kts 11°
2026-05-07 15:58 60.13119 11.91527 8861 ft 287 kts
2026-05-07 15:58 60.15081 11.92113 8468 ft 284 kts
2026-05-07 15:58 60.17032 11.92697 8071 ft 282 kts
2026-05-07 15:59 60.18963 11.93272 7680 ft 279 kts
2026-05-07 15:59 60.20876 11.93841 7293 ft 276 kts
2026-05-07 15:59 60.22767 11.94409 6969 ft 273 kts
2026-05-07 15:59 60.24638 11.94939 6715 ft 271 kts
2026-05-07 16:00 60.26484 11.94478 6461 ft 268 kts 340°
2026-05-07 16:00 60.28063 11.92578 6195 ft 265 kts 316°
2026-05-07 16:00 60.29138 11.89594 5928 ft 264 kts 297°
2026-05-07 16:00 60.30003 11.86341 5695 ft 263 kts 297°
2026-05-07 16:01 60.30868 11.83075 5479 ft 264 kts 297°
2026-05-07 16:01 60.31733 11.79812 5280 ft 263 kts 298°
2026-05-07 16:01 60.32597 11.76559 5092 ft 263 kts 298°
2026-05-07 16:01 60.33461 11.73308 5000 ft 262 kts 298°
2026-05-07 16:02 60.34319 11.70073 5007 ft 261 kts 297°
2026-05-07 16:02 60.35161 11.66882 5009 ft 261 kts 297°
2026-05-07 16:02 60.36013 11.63642 5012 ft 261 kts 297°
2026-05-07 16:02 60.36864 11.60400 5012 ft 261 kts 297°
2026-05-07 16:03 60.37714 11.57152 5011 ft 261 kts 297°
2026-05-07 16:03 60.38565 11.53899 5013 ft 262 kts 297°
2026-05-07 16:03 60.39417 11.50644 5012 ft 262 kts 297°
2026-05-07 16:03 60.40268 11.47391 5011 ft 262 kts 297°
2026-05-07 16:04 60.41120 11.44141 5011 ft 261 kts 297°
2026-05-07 16:04 60.41737 11.40704 5013 ft 261 kts 279°
2026-05-07 16:04 60.41726 11.37031 5010 ft 262 kts 259°
2026-05-07 16:04 60.41290 11.33442 4869 ft 262 kts 256°
2026-05-07 16:05 60.40843 11.29873 4664 ft 261 kts 256°
2026-05-07 16:05 60.40353 11.26345 4449 ft 260 kts 248°
2026-05-07 16:05 60.39214 11.23582 4251 ft 260 kts 212°
2026-05-07 16:05 60.37529 11.22303 4069 ft 260 kts 195°
2026-05-07 16:06 60.35783 11.21340 3993 ft 253 kts 196°
2026-05-07 16:06 60.34162 11.20417 3784 ft 238 kts 197°
2026-05-07 16:06 60.32580 11.19492 3337 ft 234 kts 196°
2026-05-07 16:06 60.31038 11.18591 2991 ft 226 kts 197°
2026-05-07 16:07 60.29604 11.17757 2688 ft 209 kts 197°
2026-05-07 16:07 60.28253 11.16970 2412 ft 197 kts 197°
2026-05-07 16:07 60.26971 11.16225 2185 ft 185 kts 197°
2026-05-07 16:07 60.25772 11.15528 1908 ft 173 kts 197°
2026-05-07 16:08 60.24671 11.14888 1702 ft 155 kts 196°
2026-05-07 16:08 60.23681 11.14314 1466 ft 143 kts 197°
2026-05-07 16:08 60.22740 11.13768 1272 ft 139 kts 197°
2026-05-07 16:08 60.21819 11.13234 1084 ft 137 kts 197°
2026-05-07 16:09 60.20907 11.12707 897 ft 136 kts 197°
2026-05-07 16:09 60.20000 11.12181 704 ft 135 kts 198°
2026-05-07 16:09 60.19215 11.11724 683 ft 84 kts 196°
2026-05-07 16:09 60.18919 11.11544 682 ft 19 kts 212°
2026-05-07 16:10 60.18901 11.11312 683 ft 19 kts 287°
2026-05-07 16:10 60.18980 11.11195 683 ft 15 kts 16°
2026-05-07 16:10 60.19063 11.11245 683 ft 13 kts 17°
2026-05-07 16:10 60.19150 11.11295 683 ft 13 kts 15°
2026-05-07 16:11 60.19243 11.11348 683 ft 14 kts 15°
2026-05-07 16:11 60.19341 11.11405 679 ft 15 kts 15°
2026-05-07 16:11 60.19444 11.11467 682 ft 16 kts 18°
2026-05-07 16:11 60.19552 11.11527 683 ft 16 kts 15°
2026-05-07 16:12 60.19653 11.11587 684 ft 13 kts 17°
2026-05-07 16:12 60.19737 11.11634 684 ft 13 kts 14°
2026-05-07 16:12 60.19814 11.11620 684 ft 13 kts 306°
2026-05-07 16:12 60.19841 11.11445 681 ft 14 kts 285°
2026-05-07 16:13 60.19870 11.11242 683 ft 15 kts 285°
2026-05-07 16:13 60.19900 11.11034 681 ft 16 kts 287°
2026-05-07 16:13 60.19931 11.10821 684 ft 16 kts 286°
2026-05-07 16:13 60.19935 11.10613 681 ft 16 kts 224°
2026-05-07 16:14 60.19827 11.10539 682 ft 18 kts 195°
2026-05-07 16:14 60.19711 11.10473 685 ft 17 kts 195°
2026-05-07 16:14 60.19603 11.10411 685 ft 14 kts 196°
2026-05-07 16:14 60.19588 11.10278 685 ft 11 kts 287°
2026-05-07 16:15 60.19602 11.10181 685 ft 3 kts 286°
2026-05-07 16:15 60.19603 11.10173 685 ft 0 kts 286°